Location: Riaz
(46.6422°N, 7.0618°E)
Time: 06:57:53
(UTC+00:00)

Daily predictions for brighter satellites

Satellite Brightness Start Highest point End
(mag) Time Altitude Azimuth Time Altitude Azimuth Time Altitude Azimuth
Cosmos 1727 Rocket 4.1 19:16:12 10° N 19:22:33 66° E 19:28:50 10° SSE
Cosmos 2251 Rocket 3.5 19:17:52 10° SSW 19:23:05 73° ESE 19:28:23 10° NNE
Cosmos 1656 3.8 19:21:45 10° NNW 19:27:11 63° ENE 19:32:40 10° SE
Cosmos 1633 3.2 19:27:21 10° SSW 19:30:50 57° WNW 19:34:20 10° N
Cosmos 220 Rocket 4.5 19:27:45 10° N 19:31:48 42° ENE 19:35:49 10° SE
Resurs 01 Rocket 2.1 19:28:33 10° SE 19:32:44 44° ENE 19:36:57 10° N
Cosmos 972 Rocket 3.9 19:28:41 10° NNW 19:33:45 83° ENE 19:38:38 10° SSE
Cosmos 1441 Rocket 3.8 19:34:32 10° SSE 19:38:04 36° E 19:41:33 10° NNE
IRIDIUM 114 4.5 19:35:36 10° SSE 19:40:41 57° E 19:45:49 10° N
Cosmos 614 Rocket 4.3 19:36:43 10° S 19:41:37 46° ESE 19:46:34 10° NNE
Cosmos 1900 4.3 19:39:55 10° SSW 19:44:51 82° ESE 19:49:54 10° NE
USA 267 3.3 19:42:06 10° ENE 19:48:34 58° SE 19:54:59 10° SW
IRIDIUM 103 4.3 19:44:38 10° S 19:49:48 69° E 19:55:01 10° N
GP-B 4.4 19:46:48 10° NNE 19:50:22 23° E 19:53:13 13° SE
Cosmos 1821 Rocket 4.1 19:45:59 10° S 19:51:58 59° E 19:58:04 10° NNE
COSMOS 2406 3.2 19:48:13 10° SSW 19:53:55 70° ESE 19:59:39 10° NNE
Shenzhou-11 Module 2.4 19:52:14 10° WSW 19:54:22 30° S 19:55:30 19° SE
Cosmos 1743 Rocket 4.4 19:50:45 10° SSW 19:55:06 56° WNW 19:59:32 10° N
CZ-2C R/B 3.7 19:51:53 10° NNE 19:56:34 83° ESE 20:01:06 10° SSW
SL-16 R/B 4.2 19:54:08 10° N 19:57:34 16° NE 20:00:59 10° ENE
Intercosmos 25 3.3 19:53:44 10° N 19:58:19 68° ENE 20:01:26 12° SSE
ERS-1 Rocket 4.3 19:56:08 13° ESE 19:59:37 25° ENE 20:03:40 10° N
Lacrosse 5 3.5 19:56:05 10° NW 20:00:28 28° NNE 20:04:52 10° ENE
Cosmos 1862 3.4 19:59:16 10° S 20:03:19 82° W 20:07:24 10° N
Cosmos 2369 3.9 19:57:41 10° NNW 20:03:25 63° ENE 20:08:05 15° SE
Sich 1 3.1 19:59:50 10° S 20:04:13 65° E 20:08:38 10° NNE
Cosmos 1818 3.6 20:02:33 10° NW 20:08:03 88° NE 20:12:24 16° SE
IRIDIUM 106 4.4 20:02:53 10° S 20:08:06 84° W 20:13:22 10° N
BREEZE-M DEB (TANK) 2.7 20:04:53 10° W 20:08:08 48° N 20:09:54 11° ENE
Cosmos 2082 Rocket 2.7 20:03:55 10° S 20:09:08 39° ESE 20:14:23 10° NE
Cosmos 2278 4.1 20:07:05 10° NNW 20:12:40 51° ENE 20:16:44 18° SE
Cosmos 2123 Rocket 4.2 20:06:58 10° N 20:13:05 56° ENE 20:18:06 16° SSE
Spot 2 Rocket 3.7 20:11:25 16° SE 20:15:25 58° ENE 20:20:26 10° N
Cosmos 2322 Rocket 4.1 20:16:18 10° N 20:20:12 18° NE 20:24:05 10° E
Meteor 1-4 Rocket 2.7 20:17:21 10° N 20:20:46 51° ENE 20:22:26 26° SE
Cosmos 2239 Rocket 4.4 20:15:09 10° S 20:21:17 83° E 20:27:28 10° N
Cosmos 1184 Rocket 3.7 20:21:01 26° ESE 20:21:50 30° E 20:24:46 10° NNE
Cosmos 1190 Rocket 4.0 20:16:44 10° S 20:21:54 62° ESE 20:27:09 10° NNE
CARTOSAT-1 4.5 20:20:05 20° ESE 20:22:17 33° ENE 20:26:11 10° N
Terra 3.2 20:21:08 17° ESE 20:23:32 25° ENE 20:27:23 10° N
USA 234 3.4 20:18:46 16° ESE 20:24:08 75° NNE 20:30:41 10° NW
CZ-2C R/B 4.0 20:19:21 10° N 20:24:08 39° WNW 20:28:56 10° SW
Cosmos 407 Rocket 3.5 20:19:31 10° SSW 20:24:50 79° ESE 20:30:09 10° NNE
Cosmos 1605 Rocket 4.4 20:21:08 17° SSE 20:25:29 41° E 20:31:09 10° NNE
Cosmos 1666 Rocket 3.4 20:21:31 10° S 20:25:49 73° E 20:30:08 10° NNE
Cosmos 1238 Rocket 3.6 20:28:02 21° E 20:28:02 21° E 20:30:09 10° NE
MetOp-B 4.2 20:25:44 14° SSE 20:30:23 82° WSW 20:35:47 10° NNW
Meteor 1-27 Rocket 4.0 20:25:37 10° NNW 20:31:32 78° W 20:36:53 13° S
Cosmos 2360 Rocket 4.4 20:31:04 10° N 20:34:07 14° NE 20:37:09 10° ENE
Cosmos 1437 Rocket 4.4 20:31:59 10° NNE 20:34:39 18° ENE 20:35:27 17° E
BREEZE-M DEB (TANK) 4.0 20:34:46 10° W 20:37:27 15° WSW 20:39:00 11° SSW
USA 238 DEB 4.0 20:31:38 10° S 20:37:43 41° ESE 20:44:02 10° NE
SPOT 5 3.2 20:35:54 26° ESE 20:37:45 40° ENE 20:41:50 10° N
USA 238 4.0 20:31:46 10° S 20:37:49 41° ESE 20:44:08 10° NE
SPOT 1/Viking Rocket 3.5 20:39:53 23° SSE 20:43:16 82° ENE 20:48:31 10° NNW
Cosmos 1980 Rocket 2.2 20:38:11 10° NNW 20:43:54 77° ENE 20:47:05 27° SE
Cosmos 2242 Rocket 4.2 20:41:53 10° N 20:46:05 39° ENE 20:47:28 30° ESE
SL-4 R/B 1.6 20:43:58 10° SW 20:47:53 74° SSE 20:51:33 10° ENE
BREEZE-M DEB (TANK) 3.0 20:46:11 10° W 20:49:00 64° N 20:56:37 10° E
Genesis I 3.2 20:45:34 10° NNW 20:49:27 71° NE 20:50:44 40° SE
Cosmos 405 Rocket 3.2 20:49:22 35° ESE 20:49:35 35° E 20:53:00 10° NNE
Cosmos 1140 Rocket 3.6 20:45:16 10° SSW 20:50:31 82° WNW 20:55:48 10° NNE
ATLAS 5 CENTAUR R/B 3.7 20:47:13 10° WNW 20:52:24 32° WSW 20:57:17 14° S
USA 32 3.9 20:53:02 22° S 20:56:31 81° E 21:01:46 10° N
Cosmos 1633 Rocket 3.5 20:55:05 12° SSW 20:59:08 62° W 21:03:32 10° N
Cosmos 1697 Rocket 3.4 20:54:09 10° NW 20:59:29 46° WSW 21:03:04 20° S
Cosmos 1833 Rocket 3.4 20:54:18 10° SW 20:59:48 56° WNW 21:05:21 10° NNE
Cosmos 1867 3.5 21:00:45 10° SSW 21:06:11 80° ESE 21:11:40 10° NE
CENTAUR R/B 3.0 21:04:46 32° SE 21:06:18 37° ESE 21:12:26 10° NE
Meteor 1-18 Rocket 4.2 21:01:59 10° N 21:07:35 65° ENE 21:09:50 36° SE
Okean 1-7 3.5 21:03:37 10° N 21:07:45 42° ENE 21:08:30 38° ESE
Resurs 01 Rocket 3.8 21:06:07 10° SW 21:09:26 21° W 21:12:46 10° NW
FALCON 9 DEB 3.0 21:10:04 10° WSW 21:13:34 88° NNW 21:15:22 27° ENE
Cosmos 1447 Rocket 4.5 21:08:22 10° N 21:14:46 79° E 21:17:47 33° SSE
Cosmos 1850 Rocket 4.4 21:14:19 39° SE 21:15:14 43° ESE 21:20:13 10° NE
Meteor 2-4 Rocket 4.2 21:11:45 10° N 21:17:13 44° ENE 21:18:53 35° ESE
Cosmos 1515 3.8 21:14:25 10° N 21:18:12 54° ENE 21:18:22 53° E
Cosmos 676 Rocket 4.2 21:14:06 10° SSW 21:19:25 74° WNW 21:24:47 10° NNE
ATLAS 5 CENTAUR R/B 3.3 21:19:00 10° NNW 21:21:27 28° NE 21:23:25 21° E
Meteor 1-25 Rocket 4.2 21:17:53 22° SSW 21:21:34 80° WNW 21:27:13 10° N
Cosmos 1470 Rocket 3.9 21:19:31 27° SSW 21:21:51 63° WNW 21:26:14 10° N
GP-B 4.4 21:23:42 10° NNW 21:27:47 36° W 21:30:41 17° SW
USA 267 3.9 21:25:11 10° NE 21:31:35 57° NNW 21:37:57 10° WSW
NOSS 3-2 (A) 3.3 21:26:31 10° SW 21:32:13 87° SE 21:38:47 10° NE
Cosmos 921 Rocket 3.3 21:30:00 10° NNW 21:34:09 56° WSW 21:34:50 49° SW
ERS-1 Rocket 3.6 21:36:08 31° SSW 21:38:08 48° W 21:43:01 10° NNW
NOSS 3-2 (C) 3.3 21:35:51 37° S 21:38:08 63° ESE 21:44:31 10° NE
Cosmos 841 Rocket 4.0 21:35:48 10° NNW 21:40:52 47° ENE 21:42:00 41° E
Cosmos 540 Rocket 4.0 21:37:18 10° NNW 21:42:18 47° ENE 21:43:22 41° E
SL-16 R/B 2.3 21:37:06 10° NNW 21:42:47 69° ENE 21:44:17 48° SE
Lacrosse 5 2.0 21:39:07 10° NW 21:44:11 67° NE 21:45:31 47° E
Cosmos 468 Rocket 4.0 21:39:12 10° NNW 21:44:32 79° WSW 21:45:45 54° S
Cosmos 1741 Rocket 3.9 21:48:22 54° S 21:49:35 79° ESE 21:54:53 10° NNE
Cosmos 1570 Rocket 4.2 21:46:55 10° NNW 21:52:12 61° ENE 21:53:10 51° ESE
Cosmos 2082 Rocket 3.6 21:47:57 10° WSW 21:53:14 38° NW 21:58:31 10° NNE
Cosmos 2219 Rocket 4.2 21:49:23 10° N 21:53:27 20° NE 21:56:38 13° E
Cosmos 2208 Rocket 4.3 21:49:06 10° NNW 21:54:17 53° ENE 21:55:11 47° E
Cosmos 1814 Rocket 4.4 21:49:34 10° NNW 21:54:39 50° ENE 21:55:32 45° E
Terra 2.6 22:00:02 38° SW 22:01:02 43° W 22:05:36 10° NNW
Cosmos 2322 Rocket 2.1 21:59:25 10° NNW 22:05:10 83° ENE 22:06:13 61° SE
USA 234 3.9 22:06:06 35° SSW 22:07:28 39° SW 22:13:31 10° WNW
Cosmos 2100 Rocket 3.9 22:05:36 46° SSW 22:07:33 83° W 22:13:45 10° N
Meteor 1-11 Rocket 3.8 22:09:09 54° ESE 22:09:36 56° E 22:15:12 10° NNE
Cosmos 1437 Rocket 3.9 22:07:32 10° NNW 22:10:50 35° W 22:10:50 35° W
Cosmos 1242 Rocket 4.3 22:09:54 10° N 22:12:07 26° NE 22:12:07 26° NE
Cosmos 1869 Rocket 3.7 22:13:01 65° W 22:13:13 66° W 22:17:40 10° N
SPOT 5 4.4 22:15:08 20° WSW 22:16:02 21° W 22:19:21 10° NW
Cosmos 2360 Rocket 2.4 22:13:44 10° NNW 22:19:22 61° ENE 22:20:19 53° E
COSMOS 2428 4.4 22:15:22 10° N 22:20:06 26° NE 22:22:36 19° E
Geosat 3.8 22:20:48 74° SSW 22:21:08 78° WSW 22:26:12 10° NNW
ATLAS 3B R/B 2.8 22:21:13 48° ESE 22:21:13 48° ESE 22:27:31 10° NE
Iridium 4 Rocket 3.4 22:21:45 59° W 22:21:46 59° W 22:25:59 10° N
Cosmos 2173 Rocket 4.1 22:21:11 44° SSW 22:23:09 69° W 22:29:17 10° N
Cosmos 1500 4.2 22:25:10 42° NW 22:25:10 42° NW 22:28:17 10° N
CRYOSAT 2 4.2 22:21:51 10° N 22:26:46 83° E 22:26:46 83° E
Cosmos 1980 Rocket 4.1 22:23:34 10° WNW 22:27:12 18° W 22:28:51 16° WSW
ALOS 2 3.3 22:27:44 44° ENE 22:27:44 44° ENE 22:31:37 10° N
SL-4 R/B 3.1 22:24:06 10° W 22:27:12 38° NNW 22:27:12 38° NNW
Cosmos 1725 Rocket 3.9 22:27:19 61° SSE 22:28:25 76° E 22:34:45 10° NNE
USA 238 DEB 4.4 22:22:03 10° WSW 22:28:32 52° NW 22:35:20 10° NE
USA 238 4.4 22:22:09 10° WSW 22:28:38 52° NW 22:35:26 10° NE
Cosmos 1763 Rocket 4.4 22:25:43 10° NW 22:30:36 37° WSW 22:31:09 36° WSW
SL-08 R/B 4.3 22:32:19 65° S 22:33:16 84° E 22:39:23 10° N
Cosmos 1536 3.7 22:34:39 46° NNE 22:34:39 46° NNE 22:37:33 10° NNE
Cosmos 1674 Rocket 4.2 22:29:37 10° N 22:33:13 47° NE 22:33:13 47° NE
Cosmos 1666 3.8 22:37:32 41° N 22:37:32 41° N 22:40:06 10° N
Cosmos 2333 Rocket 3.2 22:34:22 10° NNW 22:39:48 39° NE 22:41:19 33° E
Cosmos 2016 Rocket 4.1 22:39:51 53° SSW 22:41:21 74° W 22:47:45 10° N
Cosmos 1271 Rocket 4.4 22:38:25 10° N 22:40:47 28° NE 22:40:47 28° NE
Cosmos 2061 Rocket 4.0 22:41:23 54° SW 22:42:46 73° W 22:48:58 10° N
Meteor 1-13 Rocket 4.3 22:37:26 10° NNW 22:42:53 61° W 22:43:23 58° WSW
Lacrosse 4 Rocket 3.4 22:45:23 20° ENE 22:45:23 20° ENE 22:46:58 10° NE
Cosmos 2237 Rocket 4.5 22:39:46 10° N 22:43:31 18° NE 22:47:16 10° E
MOS 1-B Rocket 4.1 22:39:47 10° N 22:45:25 64° WNW 22:46:44 49° SW
Cosmos 2221 Rocket 4.2 22:42:33 10° NNW 22:46:29 51° WNW 22:46:29 51° WNW
Cosmos 1733 Rocket 3.5 22:50:59 61° N 22:50:59 61° N 22:54:42 10° N
Cosmos 1066 Rocket 4.0 22:47:41 10° NNW 22:53:27 85° W 22:53:46 80° SSW
Meteor 1-23 Rocket 4.1 22:49:24 10° NNW 22:55:16 86° W 22:55:43 77° S
Thor Agena Rocket 3.6 22:51:37 10° N 22:56:40 67° WNW 22:57:00 65° W
CENTAUR R/B 3.2 22:51:50 16° WSW 22:56:40 54° NW 23:03:48 10° NE
Cosmos 968 Rocket 4.2 22:59:01 41° ENE 22:59:01 41° ENE 23:02:57 10° NNE
Cosmos 967 Rocket 4.5 22:54:23 10° NW 23:00:40 63° WSW 23:01:03 62° SW
Cosmos 44 4.1 22:57:38 10° NW 23:01:33 44° W 23:01:33 44° W
Cosmos 2233 Rocket 4.0 23:14:31 64° SW 23:15:26 76° W 23:21:48 10° N
Cosmos 1464 Rocket 4.5 23:15:36 44° ESE 23:16:07 45° E 23:21:58 10° NNE
Cosmos 1908 Rocket 4.3 23:18:33 51° NNE 23:18:33 51° NNE 23:21:54 10° NNE
Cosmos 2227 Rocket 4.4 23:22:42 12° E 23:22:42 12° E 23:24:31 10° ENE
SL-16 R/B 3.9 23:22:19 10° NW 23:26:08 20° W 23:26:08 20° W
Lacrosse 5 3.7 23:22:33 10° WNW 23:24:41 21° W 23:24:41 21° W
Cosmos 1833 4.3 23:28:44 60° W 23:29:22 65° WNW 23:35:02 10° NNE
Cosmos 2322 3.6 23:23:59 10° NNW 23:29:31 75° W 23:29:31 75° W
Cosmos 1378 Rocket 4.5 23:25:24 10° NNW 23:28:49 44° NW 23:28:49 44° NW
Nadezhda 4 Rocket 4.5 23:30:46 10° N 23:36:52 49° ENE 23:38:04 44° ESE
Cosmos 2219 Rocket 2.1 23:32:30 10° NNW 23:38:14 89° ENE 23:38:19 87° SE
Cosmos 1975 Rocket 3.6 23:38:44 10° N 23:42:25 56° NNE 23:42:25 56° NNE
Cosmos 1513 Rocket 4.4 23:42:38 67° SE 23:43:19 74° E 23:49:45 10° NNE
Cosmos 2333 4.4 23:38:20 10° NNW 23:43:44 58° W 23:43:44 58° W
Cosmos 2034 Rocket 4.3 23:43:53 51° ESE 23:44:34 53° E 23:50:40 10° NNE
Cosmos 1503 Rocket 4.0 23:45:55 75° ENE 23:45:55 75° ENE 23:51:02 10° NNE
Cosmos 1072 Rocket 4.3 23:46:51 75° SSE 23:47:20 82° E 23:53:28 10° N
Cosmos 2322 Rocket 4.2 23:45:04 10° WNW 23:48:01 16° W 23:48:01 16° W
Helios 1A 4.0 23:49:48 43° NW 23:49:48 43° NW 23:52:48 10° NNW
SL-16 R/B 4.2 23:46:15 15° ESE 23:50:08 27° ENE 23:55:13 10° N
Cosmos 1486 Rocket 4.3 23:52:11 55° WNW 23:52:23 55° WNW 23:57:31 10° NNE
SL-16 R/B 4.4 23:49:31 10° N 23:53:53 22° NE 23:58:13 10° E
CZ-2D R/B 4.1 23:50:37 10° NE 23:54:02 17° E 23:54:54 16° E
Sich 1 Rocket 4.3 23:55:31 49° NE 23:55:31 49° NE 23:58:56 10° NNE
